Regional Weather Roundup
Issued by NWS

Home | Current Version | Previous Version | Text Only | Print | Product List | Glossary On
Versions: 1 2 3 4 5 6 7 8 9 10 11 12 13 14 15 16 17 18 19 20 21 22 23 24 25 26 27 28 29 30 31 32 33 34 35 36 37 38 39 40 41 42 43 44 45 46 47 48 49 50
000
ASUS43 KBIS 232010
RWRND

NORTH DAKOTA REGIONAL WEATHER ROUNDUP
NATIONAL WEATHER SERVICE BISMARCK ND
300 PM CDT MON OCT 23 2017

NOTE: "FAIR" INDICATES FEW OR NO CLOUDS BELOW 12,000 FEET WITH NO
SIGNIFICANT WEATHER AND/OR OBSTRUCTIONS TO VISIBILITY.


NDZ001>003-009>011-017-232100-
NORTHWEST NORTH DAKOTA

CITY           SKY/WX    TMP DP  RH WIND       PRES   REMARKS
WILLISTON      LGT RAIN  56  26  31 NW35G44   30.23R
MINOT          CLOUDY    53  34  48 NW31G41   30.10R
MINOT AFB      CLOUDY    50  35  55 N24G35    30.09R
$$

NDZ018>021-031>035-040>046-232100-
SOUTHWEST NORTH DAKOTA

CITY           SKY/WX    TMP DP  RH WIND       PRES   REMARKS
BISMARCK       PTSUNNY   57  31  37 NW32G41   30.11F
DICKINSON      PTSUNNY   54  25  32 NW29G44   30.20R
GARRISON         N/A     53  31  42 NW35G47   30.11R
HETTINGER ARPT MOSUNNY   57  23  26 NW37G51   30.22S
$$

NDZ004>008-012>016-024-026-027-054-232100-
NORTHEAST NORTH DAKOTA

CITY           SKY/WX    TMP DP  RH WIND       PRES   REMARKS
GRAND FORKS    MOSUNNY   56  31  38 NW23G32   29.93R
GRND FRKS AFB  SUNNY     55  25  31 N23G32    29.95R
DEVILS LAKE    PTSUNNY   49  35  58 NW24G33   30.00R
$$

NDZ022-023-025-028>030-036>039-047>053-232100-
SOUTHEAST NORTH DAKOTA

CITY           SKY/WX    TMP DP  RH WIND       PRES   REMARKS
FARGO          SUNNY     56  30  37 NW22G37   29.93S
JAMESTOWN      MOSUNNY   55  32  41 NW31G39   30.00S
$$





USA.gov is the U.S. government's official web portal to all federal, state and local government web resources and services.